Ft Lauderdale, FL

12:34 AM EDT on August 22, 2017 (GMT -0400)
Fort Lauderdale-Hollywood International

Weather History for KFLL - April, 2012

Change the Weather History Date:

Saturday, April 21, 2012

  Actual Average Record
Temperature  
Mean Temperature 72 °F 77 °F  
Max Temperature 76 °F 83 °F 89 °F (1959)
Min Temperature 67 °F 70 °F 49 °F (1953)
Degree Days  
Heating Degree Days 0 0  
Month to date heating degree days 0 0  
Since 1 July heating degree days 65 111  
Cooling Degree Days 7 12  
Month to date cooling degree days 241 225  
Year to date cooling degree days 991 835  
Growing Degree Days 22 (Base 50)    
Moisture  
Dew Point 68 °F    
Average Humidity 88    
Maximum Humidity 97    
Minimum Humidity 79    
Precipitation  
Precipitation 0.96 in 0.10 in 1.60 in (1934)
Month to date precipitation 4.10 2.18  
Year to date precipitation 7.38 12.13  
Snow  
Snow 0.00 in - - ()
Month to date snowfall 0.0  
Since 1 July snowfall 0.0  
Snow Depth 0.00 in    
Sea Level Pressure  
Sea Level Pressure 29.78 in    
Wind  
Wind Speed 11 mph (SSE)    
Max Wind Speed 23 mph    
Max Gust Speed 31 mph    
Visibility 9 miles    
Events Rain , Thunderstorm    
T = Trace of Precipitation, MM = Missing Value Source: NWS Daily Summary

Daily Weather History Graph

Daily Weather History Graph

Search for Another Location

Airport or City:

Trip Planner

Search our weather history database for the weather conditions in past years. The results will help you decide how hot, cold, wet, or windy it might be!

Date:

Astronomy

Apr. 21, 2012 Rise Set
Actual Time 6:51 AM EDT 7:47 PM EDT
Civil Twilight 6:27 AM EDT 8:11 PM EDT
Nautical Twilight 5:59 AM EDT 8:39 PM EDT
Astronomical Twilight 5:30 AM EDT 9:08 PM EDT
Moon 6:51 AM EDT (4/21) 8:19 PM EDT (4/21)
Length of Visible Light 13h 43m
Length of Day
12h 55m
New Moon, 0% of the Moon is Illuminated
Apr 21
New Moon
Apr 29
First Quarter
May 5
Full
May 12
Last Quarter
May 20
New

Hourly Weather History & Observations

Time (EDT) Temp. Dew Point Humidity Pressure Visibility Wind Dir Wind Speed Gust Speed Precip Events Conditions
12:53 AM 70.0 °F 68.0 °F 93% 29.91 in 10.0 mi NE 9.2 mph - N/A   Mostly Cloudy
1:53 AM 72.0 °F 69.1 °F 91% 29.85 in 10.0 mi East 6.9 mph - N/A   Scattered Clouds
2:53 AM 73.9 °F 69.1 °F 85% 29.84 in 10.0 mi SE 9.2 mph 18.4 mph N/A   Mostly Cloudy
3:53 AM 73.9 °F 70.0 °F 87% 29.84 in 6.0 mi South 4.6 mph - 0.01 in Rain Rain
4:17 AM 73.4 °F 71.6 °F 94% 29.85 in 5.0 mi ESE 4.6 mph - 0.07 in Rain , Thunderstorm Thunderstorms and Rain
4:53 AM 69.1 °F 68.0 °F 96% 29.85 in 5.0 mi SSW 12.7 mph 17.3 mph 0.09 in Rain , Thunderstorm Thunderstorms and Rain
5:53 AM 69.1 °F 66.9 °F 93% 29.85 in 7.0 mi SSW 5.8 mph - 0.39 in Rain , Thunderstorm Thunderstorms and Rain
6:53 AM 69.1 °F 66.9 °F 93% 29.85 in 10.0 mi SE 10.4 mph - N/A Rain Light Rain
7:53 AM 71.1 °F 68.0 °F 90% 29.83 in 10.0 mi SE 13.8 mph - 0.00 in   Mostly Cloudy
8:53 AM 72.0 °F 66.9 °F 84% 29.83 in 10.0 mi SSE 13.8 mph 20.7 mph 0.00 in   Overcast
9:53 AM 73.0 °F 66.9 °F 81% 29.82 in 10.0 mi SSE 16.1 mph - N/A   Overcast
10:53 AM 73.0 °F 66.0 °F 79% 29.80 in 10.0 mi SSE 18.4 mph 31.1 mph N/A   Overcast
11:53 AM 73.9 °F 66.9 °F 79% 29.81 in 10.0 mi South 9.2 mph - 0.00 in Rain Light Rain
12:53 PM 73.9 °F 66.9 °F 79% 29.83 in 10.0 mi South 4.6 mph - 0.00 in Rain Light Rain
1:53 PM 72.0 °F 66.9 °F 84% 29.84 in 10.0 mi SSW 10.4 mph - 0.00 in Rain Light Rain
2:53 PM 70.0 °F 66.0 °F 87% 29.83 in 10.0 mi SW 8.1 mph - 0.00 in Rain Light Rain
3:53 PM 71.1 °F 68.0 °F 90% 29.78 in 10.0 mi South 5.8 mph - 0.00 in   Mostly Cloudy
4:53 PM 73.0 °F 66.9 °F 81% 29.72 in 10.0 mi SE 9.2 mph - 0.00 in   Scattered Clouds
5:53 PM 73.0 °F 66.0 °F 79% 29.73 in 10.0 mi South 11.5 mph - N/A   Overcast
6:53 PM 73.0 °F 66.0 °F 79% 29.70 in 10.0 mi SE 12.7 mph 20.7 mph 0.00 in   Scattered Clouds
7:53 PM 73.9 °F 68.0 °F 82% 29.70 in 10.0 mi SE 8.1 mph - N/A   Scattered Clouds
8:53 PM 73.9 °F 66.9 °F 79% 29.70 in 10.0 mi SE 10.4 mph - N/A   Scattered Clouds
9:53 PM 75.0 °F 69.1 °F 82% 29.69 in 10.0 mi SSE 12.7 mph - N/A   Scattered Clouds
10:10 PM 75.2 °F 69.8 °F 83% 29.70 in 10.0 mi SSE 12.7 mph 20.7 mph N/A   Mostly Cloudy
10:17 PM 75.2 °F 69.8 °F 83% 29.70 in 10.0 mi SSE 12.7 mph - N/A   Scattered Clouds
10:53 PM 75.9 °F 69.1 °F 79% 29.70 in 10.0 mi SSE 13.8 mph 21.9 mph N/A   Mostly Cloudy
11:11 PM 75.2 °F 69.8 °F 83% 29.70 in 10.0 mi SSE 18.4 mph 25.3 mph N/A   Overcast
11:39 PM 75.2 °F 69.8 °F 83% 29.70 in 10.0 mi SSE 17.3 mph 24.2 mph N/A   Overcast
11:53 PM 75.9 °F 70.0 °F 82% 29.70 in 10.0 mi South 13.8 mph 23.0 mph N/A   Overcast